Location: La Trinit�
(48.1620°N, 3.4512°W)
Time: 09:11:50
(UTC+00:00)

BREEZE M DEB (TANK) - Pass Details

Date: 08 May 2021
Orbit: 273 x 14492 km, 49.6° (Epoch: 12 June)

Event Time Altitude Azimuth Distance (km) Brightness Sun altitude
Rises 20:14:33 0° 268° (W) 6,474 8.7 -6.1°
Reaches altitude 10° 20:20:38 10° 270° (W) 3,822 7.5 -7.0°
Maximum altitude 20:28:01 72° 356° (N) 625 2.7 -7.9°
Drops below altitude 10° 20:30:39 10° 82° (E) 1,407 4.0 -8.3°
Enters shadow 20:31:12 - 83° (E) 1,673 4.4 -8.4°
